{"data":{"norad_id":63314,"epoch":"2026-05-25T02:23:59.479008Z","epoch_age_seconds":69980,"freshness":"FRESH","line1":"1 63314U 25057H   26145.09999397  .00146424  00000+0  11220-2 0  9997","line2":"2 63314  42.9995 164.0753 0001260 274.9102  85.1622 15.70895099 69199","mean_motion":15.70895099,"eccentricity":0.000126,"inclination_deg":42.9995,"raan_deg":164.0753,"arg_perigee_deg":274.9102,"mean_anomaly_deg":85.1622,"bstar":0.001122,"rev_number":6919,"period_min":91.667483138542,"perigee_km":355.48903912027,"apogee_km":357.18612671517,"semimajor_km":6734.4745829177,"source":"CELESTRAK","updated_at":"2026-05-25T13:38:19.957293Z"}}